Weston, WY

7:41 AM MDT on July 26, 2016 (GMT -0600)
Gillette-Campbell County

Weather History for KGCC - June, 2013

Change the Weather History Date:

Sunday, June 2, 2013

  Actual Average Record
Temperature  
Mean Temperature 59 °F 58 °F  
Max Temperature 75 °F 71 °F 89 °F (1977)
Min Temperature 43 °F 44 °F 30 °F (1951)
Degree Days  
Heating Degree Days 6 8  
Month to date heating degree days 18 16  
Since 1 June heating degree days 18 16  
Since 1 July heating degree days 7331 7418  
Cooling Degree Days 0 1  
Month to date cooling degree days 0 2  
Year to date cooling degree days 8 10  
Since 1 June cooling degree days 0 2  
Growing Degree Days 8 (Base 50)    
Moisture  
Dew Point 45 °F    
Average Humidity 65    
Maximum Humidity 89    
Minimum Humidity 41    
Precipitation  
Precipitation 0.00 in 0.10 in 1.93 in (1967)
Month to date precipitation 0.09 0.20  
Year to date precipitation 7.13 5.86  
Sea Level Pressure  
Sea Level Pressure 29.84 in    
Wind  
Wind Speed 14 mph (SE)    
Max Wind Speed 25 mph    
Max Gust Speed 33 mph    
Visibility 10 miles    
Events      
T = Trace of Precipitation, MM = Missing Value Source: NWS Daily Summary

Daily Weather History Graph

Daily Weather History Graph

Search for Another Location

Airport or City:

Trip Planner

Search our weather history database for the weather conditions in past years. The results will help you decide how hot, cold, wet, or windy it might be!

Date:

Astronomy

Jun. 02, 2013 Rise Set
Actual Time 5:20 AM MDT 8:40 PM MDT
Civil Twilight 4:44 AM MDT 9:16 PM MDT
Nautical Twilight 3:58 AM MDT 10:03 PM MDT
Astronomical Twilight 3:00 AM MDT 11:01 PM MDT
Moon 2:00 AM MDT (6/2) 3:02 PM MDT (6/2)
Length of Visible Light 16h 31m
Length of Day
15h 19m
Waning Crescent, 30% of the Moon is Illuminated
Jun 2
Waning Crescent
Jun 8
New
Jun 16
First Quarter
Jun 23
Full
Jun 29
Last Quarter

Hourly Weather History & Observations

Time (MDT) Temp. Windchill Dew Point Humidity Pressure Visibility Wind Dir Wind Speed Gust Speed Precip Events Conditions
12:53 AM 46.0 °F 41.4 °F 42.1 °F 86% 30.10 in 10.0 mi South 9.2 mph - N/A   Clear
1:53 AM 46.0 °F 42.5 °F 42.1 °F 86% 30.09 in 10.0 mi SSE 6.9 mph - N/A   Clear
2:53 AM 45.0 °F 39.3 °F 41.0 °F 86% 30.06 in 10.0 mi South 11.5 mph - N/A   Clear
3:53 AM 45.0 °F 38.5 °F 39.9 °F 82% 30.04 in 10.0 mi South 13.8 mph - N/A   Clear
4:53 AM 44.1 °F 38.1 °F 39.9 °F 85% 30.01 in 10.0 mi South 11.5 mph - N/A   Clear
5:53 AM 44.1 °F 39.5 °F 39.9 °F 85% 30.00 in 10.0 mi South 8.1 mph - N/A   Clear
6:53 AM 48.9 °F - 42.1 °F 77% 29.98 in 10.0 mi SSE 13.8 mph - N/A   Clear
7:53 AM 48.9 °F - 42.1 °F 77% 29.96 in 10.0 mi South 13.8 mph - N/A   Clear
8:53 AM 55.0 °F - 43.0 °F 64% 29.96 in 10.0 mi South 18.4 mph 25.3 mph N/A   Clear
9:53 AM 59.0 °F - 44.1 °F 58% 29.94 in 10.0 mi SSE 13.8 mph - N/A   Clear
10:53 AM 62.1 °F - 45.0 °F 53% 29.91 in 10.0 mi SSE 12.7 mph - N/A   Clear
11:53 AM 64.9 °F - 46.0 °F 50% 29.88 in 10.0 mi SE 15.0 mph - N/A   Clear
12:53 PM 66.9 °F - 46.9 °F 49% 29.85 in 10.0 mi SE 9.2 mph 19.6 mph N/A   Clear
1:53 PM 70.0 °F - 48.9 °F 47% 29.82 in 10.0 mi SE 11.5 mph - N/A   Clear
2:53 PM 72.0 °F - 48.9 °F 44% 29.78 in 10.0 mi SE 12.7 mph 23.0 mph N/A   Clear
3:53 PM 73.0 °F - 48.9 °F 42% 29.76 in 10.0 mi SE 12.7 mph - N/A   Clear
4:53 PM 73.9 °F - 48.9 °F 41% 29.73 in 10.0 mi East 15.0 mph - N/A   Clear
5:53 PM 73.0 °F - 48.9 °F 42% 29.70 in 10.0 mi ESE 19.6 mph 25.3 mph N/A   Clear
6:53 PM 72.0 °F - 48.0 °F 43% 29.66 in 10.0 mi ESE 17.3 mph 27.6 mph N/A   Clear
7:53 PM 69.1 °F - 48.0 °F 47% 29.65 in 10.0 mi ESE 18.4 mph 25.3 mph N/A   Clear
8:53 PM 66.9 °F - 48.0 °F 51% 29.64 in 10.0 mi SE 15.0 mph - N/A   Unknown
9:53 PM 64.9 °F - 46.9 °F 52% 29.60 in 10.0 mi SE 19.6 mph 26.5 mph N/A   Clear
10:53 PM 64.0 °F - 46.9 °F 54% 29.57 in 10.0 mi SE 18.4 mph 27.6 mph N/A   Partly Cloudy
11:53 PM 62.1 °F - 46.9 °F 58% 29.54 in 10.0 mi SSE 19.6 mph - N/A   Clear